Regional Weather Roundup
Issued by NWS

Home | Current Version | Previous Version | Text Only | Print | Product List | Glossary Off
Versions: 1 2 3 4 5 6 7 8 9 10 11 12 13 14 15 16 17 18 19 20 21 22 23 24 25 26 27 28 29 30 31 32 33 34 35 36 37 38 39 40 41 42 43 44 45 46 47 48 49 50

769
ASUS45 KBOU 261907
RWRCO

WEATHER ROUNDUP FOR COLORADO
NATIONAL WEATHER SERVICE DENVER/BOULDER CO
100 PM MDT TUE JUL 26 2016

NOTE: "FAIR" INDICATES FEW OR NO CLOUDS BELOW 12000 FEET WITH NO
SIGNIFICANT WEATHER AND/OR OBSTRUCTIONS TO VISIBILITY.

COZ001>005-013-030-031-262000-
...NORTHWEST COLORADO...

CITY           SKY/WX    TMP DP  RH WIND       PRES   REMARKS
CRAIG          FAIR      90  33  13 VRB5      30.23F
HAYDEN         FAIR      84  34  16 W8        30.27F
MEEKER         FAIR      87  42  20 VRB6      30.25F
MOUNT WERNER   NOT AVBL
STEAMBOAT SPGS FAIR      83  39  20 W5        30.30F
WALDEN         FAIR      81  28  15 W12       30.39F
$$

COZ006>008-011-262000-
...WEST CENTRAL VALLEYS...

CITY           SKY/WX    TMP DP  RH WIND       PRES   REMARKS
GRAND JUNCTION FAIR      92  43  18 VRB3      30.13F
MONTROSE       FAIR      83  41  22 SE3       30.25F
EAGLE          SUNNY     77  39  25 CALM      30.33F
RIFLE          FAIR      90  43  19 N7        30.20F
DELTA          FAIR      89  40  17 S5        30.20F
NUCLA          FAIR     N/A N/A N/A E3        30.30F
$$

COZ017>023-064>068-262000-
...SOUTHWEST COLORADO...

CITY           SKY/WX    TMP DP  RH WIND       PRES   REMARKS
DURANGO        FAIR      80  47  31 W7        30.29F
CORTEZ         FAIR      83  48  29 CALM      30.25F
PAGOSA SPRINGS FAIR      79  41  25 S12G17    30.36F
TELLURIDE      CLOUDY    68  42  38 W9        30.53S
WOLF CREEK PAS CLOUDY    54  37  54 E5        30.72F
$$

COZ009-010-012-014-032>034-037-058>063-262000-
...CENTRAL COLORADO...

CITY           SKY/WX    TMP DP  RH WIND       PRES   REMARKS
ASPEN          PTSUNNY   77  40  26 VRB3      30.40F
BUENA VISTA    PTSUNNY   78  31  17 SW10      30.40S
COPPER MTN     CLOUDY    59  32  36 SE16G24   30.75S
BERTHOUD PASS  CLOUDY    52  37  58 N6G21     30.78S
COTTONWOOD PAS PTSUNNY   68  34  28 E6        30.58S
GUNNISON       FAIR      72  43  35 SW5       30.42F
KREMMLING      FAIR      77  36  22 E5        30.37F
LEADVILLE      PTSUNNY   64  31  28 NW15G23   30.58R
MONARCH PASS   CLOUDY    52  36  54 MISG      30.83R
SALIDA         PTSUNNY   78  33  19 NW10      30.44S
SUNLIGHT       PTSUNNY   66  45  45 MISG      30.67F
WILKERSON PASS LGT RAIN  61  34  36 E6G18     30.69S
$$

COZ069>075-262000-
...SAN LUIS VALLEY/SANGRE DE CRISTO MOUNTAINS...

CITY           SKY/WX    TMP DP  RH WIND       PRES   REMARKS
ALAMOSA        FAIR      78  46  32 W6        30.35F
LA VETA PASS   CLOUDY    68  32  26 CALM      30.56S
SAGUACHE       FAIR      81  46  30 SW9       30.37F
$$

COZ035-036-038>040-262000-
...NORTHERN COLORADO FRONT RANGE...

CITY           SKY/WX    TMP DP  RH WIND       PRES   REMARKS
DENVER INTL AP CLOUDY    90  38  16 N10       30.16S
DMNS CITY PARK   N/A     86  40  19 SW12      30.17S
AURORA         CLOUDY    87  44  21 W9        30.18S
FRONT RANGE AP PTSUNNY   91  45  19 N14       30.17F
ERIE MUNI ARPT FAIR      86  51  29 SW3       30.14F
BOULDER MUN AP FAIR      88  52  29 S8        30.15S
CENTENNIAL     CLOUDY    87  34  15 W14       30.21R
BROOMFIELD     CLOUDY    86  46  25 S3        30.20R
LONGMONT       FAIR      86  55  34 SE5       30.14F
$$

COZ041-046-047-076>085-087-088-262000-
...PIKES PEAK/PALMER DIVIDE AND SOUTHERN FOOTHILLS...

CITY           SKY/WX    TMP DP  RH WIND       PRES   REMARKS
COLO. SPRINGS  PTSUNNY   81  46  29 S6        30.24F
A. F. ACADEMY  PTSUNNY   83  46  27 S10       30.25F
SCHRIEVER AFB  NOT AVBL
ELLICOTT       FAIR     N/A N/A N/A S8        30.21F
FALCON         NOT AVBL
FORT CARSON    PTSUNNY   85  49  28 VRB5      30.20F
LIMON          NOT AVBL
MONUMENT HILL  PTSUNNY   79  39  24 NW23      30.31S
TRINIDAD       NOT AVBL
$$

COZ042>045-048>051-090-091-262000-
...NORTHEAST COLORADO...

CITY           SKY/WX    TMP DP  RH WIND       PRES   REMARKS
GREELEY ARPT   FAIR      84  61  45 S10       30.10F
AKRON          FAIR      90  53  28 SW5       30.10F
BURLINGTON     FAIR      87  64  46 S18       30.10F
WRAY           NOT AVBL
STERLING       FAIR      91  59  33 S7        30.04F
HOLYOKE        FAIR      88  64  45 W8        30.06F
FORT MORGAN    FAIR      89  53  28 S8        30.09F
$$

COZ086-089-092>099-262000-
...SOUTHEAST COLORADO...

CITY           SKY/WX    TMP DP  RH WIND       PRES   REMARKS
PUEBLO         FAIR      90  50  25 MISG      30.10F
LA JUNTA       FAIR      91  55  29 VRB3      30.08F
LAMAR          FAIR      94  57  28 E8        30.04F
SPRINGFIELD      N/A     89  54  30 S8G20     30.11F
$$




USA.gov is the U.S. government's official web portal to all federal, state and local government web resources and services.